Lid_Strength_Index
1 0 0 0 -0 -0 1 1 2 2 1 1 1 1 1 2 5 5 8 5 4 2 2 6 7 7 6 7 7 7 10 11 10 10 10 10 10 9 9 9 9 9 9 7 5
1 1 0 0 -0 -0 -0 1 2 2 2 1 1 1 1 2 7 8 4 2 2 2 5 7 8 7 8 8 7 8 10 10 9 9 10 9 9 9 10 10 10 9 8 7 6
1 1 0 0 -0 -0 -0 0 1 2 2 3 2 2 2 3 8 9 3 3 2 3 5 6 7 8 9 8 9 9 10 11 11 10 10 10 11 10 10 10 9 9 9 8 7
1 1 0 0 -0 -0 -0 0 1 1 3 3 3 3 3 6 11 8 4 4 4 5 6 8 8 10 10 11 10 11 11 11 11 10 11 11 10 11 10 9 9 8 8 8 8
1 1 1 0 0 -0 0 0 1 1 3 3 3 3 6 10 11 7 5 5 5 6 7 9 10 10 11 11 11 11 11 11 11 11 11 10 11 11 10 9 8 9 9 8 8
1 1 1 1 0 0 0 1 2 2 3 3 3 4 8 11 8 7 7 6 6 7 8 8 9 9 10 11 11 11 11 11 11 11 10 12 11 11 10 9 8 9 9 8 8
1 1 1 1 1 1 1 2 2 3 3 3 3 7 9 11 8 7 7 7 6 7 8 8 8 9 9 11 10 11 12 11 11 11 11 11 13 13 9 9 10 9 9 8 8
1 1 1 1 1 1 2 2 3 5 4 4 5 8 11 8 7 8 6 7 6 6 6 6 6 8 9 9 11 12 12 13 12 12 11 12 14 11 10 10 11 10 9 9 8
1 1 1 1 1 1 2 4 4 5 6 6 7 8 12 8 9 8 7 8 7 7 7 7 8 9 9 11 12 12 14 14 14 12 13 13 14 11 11 11 11 10 9 9 9
1 1 0 1 1 2 3 4 5 5 5 7 7 9 10 12 10 9 7 7 8 8 8 9 9 10 11 11 14 13 14 14 15 14 13 14 14 11 10 11 11 10 10 9 9
0 0 0 1 2 3 3 3 5 6 7 11 12 13 12 10 8 8 8 8 9 9 11 10 10 12 13 13 14 14 15 15 13 13 15 14 14 12 10 10 11 10 10 10 9
1 1 2 2 2 3 3 6 9 9 9 10 12 12 11 10 12 9 7 10 11 12 11 10 12 13 13 13 14 14 15 14 13 14 15 14 15 13 11 11 11 11 10 10 9
1 2 2 2 4 4 6 8 7 7 9 11 12 13 12 10 12 11 9 10 12 14 13 12 13 13 14 14 14 14 15 15 16 14 13 15 14 11 12 11 11 10 9 9 9
2 2 2 2 3 4 7 7 6 6 13 12 13 12 11 10 11 10 9 11 11 14 13 13 13 14 14 14 14 15 14 15 16 16 16 15 18 12 11 12 11 10 10 9 9
3 3 3 3 3 5 7 6 6 7 18 11 12 10 10 10 11 10 8 10 12 13 12 12 13 14 15 14 14 15 14 15 16 17 18 16 17 13 13 13 12 10 9 9 9
3 3 3 2 2 5 4 5 5 14 18 12 11 11 10 10 10 10 10 9 10 12 12 13 12 13 13 13 14 14 15 16 16 16 18 19 17 14 12 12 12 10 10 10 9
3 4 3 3 4 3 3 4 14 17 11 13 12 11 11 11 11 11 11 11 12 14 14 14 14 13 13 14 13 14 15 16 18 18 17 20 18 14 11 11 11 11 10 10 9
3 3 4 4 3 3 3 9 16 12 12 10 11 10 11 12 11 11 11 11 12 12 13 14 16 14 13 14 15 15 15 16 19 18 17 22 18 13 12 12 10 10 10 10 10
2 1 2 3 3 2 6 14 15 11 10 11 9 12 13 11 12 11 11 11 11 12 13 14 15 14 14 13 14 15 16 16 18 23 19 15 14 12 12 12 12 11 11 10 9
1 2 3 3 2 2 11 12 11 10 10 10 13 11 14 13 11 12 11 10 12 11 12 13 15 15 14 13 14 15 15 17 16 20 20 15 16 14 12 12 12 12 10 9 10
1 6 3 3 2 8 12 12 12 8 8 11 11 13 11 13 12 12 11 11 10 11 11 12 14 15 15 15 14 16 16 17 16 17 18 18 15 12 11 12 12 11 10 11 11
3 11 3 2 10 11 12 12 9 9 9 9 10 10 11 11 12 12 12 10 10 10 13 12 13 15 13 13 13 13 14 14 16 17 17 18 17 12 11 11 12 12 11 10 10
8 7 3 3 12 12 11 12 9 9 9 10 11 9 10 12 13 11 11 10 10 11 12 12 14 15 15 15 14 15 14 14 16 16 17 18 15 11 12 13 11 12 10 10 10
6 12 9 8 7 10 11 11 11 9 9 9 10 10 11 12 11 12 11 10 9 10 11 11 13 14 16 14 13 16 15 14 15 16 15 15 14 12 11 10 10 10 10 10 10
7 10 9 12 11 10 10 10 12 12 9 9 11 11 12 13 12 13 11 10 10 9 10 12 16 14 13 13 14 14 14 14 16 15 16 14 14 11 10 10 10 10 10 10 10
8 10 8 10 10 11 11 12 12 11 11 12 12 10 10 13 11 13 11 11 11 10 11 11 14 17 17 13 13 15 15 14 15 14 15 14 15 10 10 10 10 10 10 11 10
5 6 8 10 11 12 12 12 12 10 9 9 10 10 11 10 9 8 8 9 9 11 12 12 13 17 17 17 18 19 17 15 13 13 13 16 13 10 11 11 10 10 10 10 10